Find Local Weather

World > North America > United States > Pennsylvania

Connie Mack Stadium, Pennsylvania Regional Weather

Lat: 40.00N, Lon: 75.17W
Wx Zone: PAZ071
Feedback

Connie Mack Stadium, PA Regional Weather

Expires:201904240900;;403625
ASUS41 KOKX 240813
RWROKX

Regional Weather Roundup
National Weather Service New York NY
400 AM EDT WED APR 24 2019

Note: "FAIR" indicates few or no clouds below 12,000 feet with no
significant weather and/or obstructions to visibility.


PAZ047>061-062-071-240900-
Eastern Pennsylvania
  
CITY           SKY/WX    TMP DP  RH WIND       PRES   REMARKS
Philadelphia   MOCLDY    64  53  67 SW8       29.73S                  
Allentown      FAIR      63  52  67 SW9       29.72S                  
Scranton       MOCLDY    59  54  83 W8        29.73R                  
$$


SKY/WX - Weather  TMP - Temperature  DP - Dew Point  RH - Relative Humidity
WIND - Wind Direction/Speed PRES - Barometric Pressure VSB - Visibility
WCI - Wind Chill Index E13G22 Wind - East Wind 13 mph/Gusts of 22 mph